CSN6044 HKJK-ZGHA

Flight info

Callsign CSN6044
Flight time N/A
Altitude 33000
Route APNOM2E IBROM UM306 ORLID G450 UNRIV/N0493F350 G450 BBB Q19 CEA B465 DAKID/N0485F370 B465 CTG A599 LINSO/K0893S1130 A599 SGM A581 NOMUK W194 LLC W138 RUKLI RUK1X
Aircraft B77W/H-SDE1E2E3FGHIJ2J3J4J5M1RWXY/LB1D1

Departure

Time N/A
Airport Jomo Kenyatta International Airport (HKJK)

Arrival

Time 2026-04-24 04:27
Airport Changsha Huanghua International Airport (ZGHA)
Time Latitude Longitude Altitude Speed Heading
2026-04-24 04:13 28.04901 113.42737 28764 ft 397 kts 145°
2026-04-24 04:13 28.02744 113.44604 28102 ft 385 kts 155°
2026-04-24 04:14 28.00396 113.46032 27378 ft 376 kts 164°
2026-04-24 04:14 27.97989 113.46987 26637 ft 368 kts 173°
2026-04-24 04:14 27.95516 113.47601 25955 ft 365 kts 170°
2026-04-24 04:14 27.93138 113.48659 25205 ft 374 kts 155°
2026-04-24 04:15 27.91017 113.50405 24553 ft 380 kts 140°
2026-04-24 04:15 27.87808 113.58122 22673 ft 383 kts 92°
2026-04-24 04:16 27.87979 113.61106 22001 ft 381 kts 76°
2026-04-24 04:16 27.88806 113.63897 21396 ft 373 kts 60°
2026-04-24 04:16 27.90187 113.66311 20774 ft 365 kts 45°
2026-04-24 04:16 27.92016 113.68251 20054 ft 358 kts 30°
2026-04-24 04:17 27.94147 113.69595 19464 ft 346 kts 16°
2026-04-24 04:17 27.96438 113.70331 18761 ft 339 kts
2026-04-24 04:17 27.98774 113.70447 18149 ft 328 kts 349°
2026-04-24 04:17 28.00836 113.70046 17551 ft 320 kts 338°
2026-04-24 04:18 28.02860 113.69102 16921 ft 310 kts 321°
2026-04-24 04:18 28.04339 113.67461 16458 ft 290 kts 297°
2026-04-24 04:18 28.05015 113.65376 15878 ft 283 kts 274°
2026-04-24 04:18 28.04796 113.63199 15216 ft 281 kts 249°
2026-04-24 04:19 28.03826 113.61310 14703 ft 280 kts 237°
2026-04-24 04:19 28.02670 113.59551 14027 ft 283 kts 236°
2026-04-24 04:19 28.01469 113.57783 13360 ft 284 kts 236°
2026-04-24 04:19 28.00271 113.56036 12787 ft 282 kts 236°
2026-04-24 04:20 27.99279 113.54179 12263 ft 273 kts 253°
2026-04-24 04:20 27.98850 113.52129 11833 ft 265 kts 261°
2026-04-24 04:20 27.98522 113.50088 11265 ft 264 kts 261°
2026-04-24 04:20 27.98196 113.48033 10683 ft 264 kts 261°
2026-04-24 04:21 27.97875 113.46014 10172 ft 261 kts 261°
2026-04-24 04:21 27.97554 113.44001 9654 ft 259 kts 261°
2026-04-24 04:21 27.97236 113.42004 9100 ft 259 kts 261°
2026-04-24 04:21 27.96920 113.40026 8565 ft 258 kts 261°
2026-04-24 04:22 27.96601 113.38030 8011 ft 258 kts 261°
2026-04-24 04:22 27.96314 113.36035 7465 ft 258 kts 269°
2026-04-24 04:22 27.96580 113.34071 6940 ft 256 kts 291°
2026-04-24 04:22 27.97366 113.32258 6406 ft 257 kts 296°
2026-04-24 04:23 27.98203 113.30485 5872 ft 258 kts 297°
2026-04-24 04:23 27.99042 113.28711 5437 ft 255 kts 297°
2026-04-24 04:23 27.99879 113.26944 4947 ft 255 kts 297°
2026-04-24 04:23 28.00727 113.25229 4725 ft 242 kts 306°
2026-04-24 04:24 28.01922 113.23997 4256 ft 230 kts 332°
2026-04-24 04:24 28.03414 113.23386 3527 ft 232 kts 348°
2026-04-24 04:24 28.05001 113.23186 2958 ft 224 kts 355°
2026-04-24 04:24 28.06486 113.23102 2777 ft 202 kts 356°
2026-04-24 04:25 28.07857 113.23029 2415 ft 195 kts 356°
2026-04-24 04:25 28.09200 113.22950 1881 ft 197 kts 356°
2026-04-24 04:25 28.10564 113.22868 1555 ft 190 kts 357°
2026-04-24 04:25 28.11857 113.22792 1305 ft 183 kts 356°
2026-04-24 04:26 28.13104 113.22716 1071 ft 172 kts 356°
2026-04-24 04:26 28.14259 113.22646 854 ft 162 kts 356°
2026-04-24 04:26 28.15347 113.22580 651 ft 152 kts 356°
2026-04-24 04:26 28.16391 113.22517 473 ft 147 kts 356°
2026-04-24 04:27 28.17419 113.22456 292 ft 148 kts 355°
2026-04-24 04:27 28.18413 113.22392 233 ft 130 kts 355°
2026-04-24 04:27 28.19212 113.22343 232 ft 97 kts 357°
2026-04-24 04:27 28.19570 113.22262 232 ft 37 kts 331°
2026-04-24 04:28 28.19775 113.22131 232 ft 28 kts 342°
2026-04-24 04:28 28.19945 113.22107 232 ft 21 kts 355°
2026-04-24 04:28 28.20056 113.22084 232 ft 14 kts 319°
2026-04-24 04:28 28.20074 113.21967 232 ft 15 kts 266°
2026-04-24 04:29 28.20067 113.21848 232 ft 13 kts 266°
2026-04-24 04:29 28.20060 113.21776 232 ft 6 kts 250°
2026-04-24 04:29 28.20013 113.21730 232 ft 11 kts 196°
2026-04-24 04:29 28.19856 113.21729 232 ft 31 kts 177°
2026-04-24 04:30 28.19644 113.21746 232 ft 29 kts 176°
2026-04-24 04:30 28.19449 113.21757 232 ft 26 kts 177°
2026-04-24 04:30 28.19270 113.21767 232 ft 24 kts 177°
2026-04-24 04:30 28.19102 113.21775 232 ft 22 kts 177°
2026-04-24 04:31 28.18949 113.21785 232 ft 20 kts 176°
2026-04-24 04:31 28.18810 113.21796 232 ft 19 kts 176°
2026-04-24 04:31 28.18681 113.21805 232 ft 17 kts 176°
2026-04-24 04:31 28.18594 113.21773 232 ft 12 kts 243°
2026-04-24 04:32 28.18607 113.21690 232 ft 11 kts 308°
2026-04-24 04:32 28.18659 113.21626 232 ft 10 kts 313°
2026-04-24 04:32 28.18674 113.21606 232 ft 0 kts 311°